Delaware County Johnson Field
KMIE : now visible

Airfield :











YOU CAN JOIN US ON...

 
LOGIN :

Register | Disclaimer

   EN    FR    IT 

 









Legend :    VFR   Marginal VFR   IFR   Intensive IFR   Very Intensive IFR
Visi :
Ceiling :
>= 8 km
>= 3000ft
5 to 8 km
1000 to 3000 ft
1500m to 5 km
500 to 1000 ft
800 to 1500m
200 to 500 ft
< 800m
< 200 ft
Symbols :   Thunderstorms  Fog  Heavy snow  Heavy precipitations  Wind > 20 kt







- Airport Elevation : 937 ft
- IATA code : MIE


KMIE - Delaware County Johnson Field

CURRENT METAR :
  • 191353Z 22007KT 10SM FEW015 30/25 A2997 RMK AO2 SLP135 T03000250

EXPIRED METARs :
  • 191344Z 22007KT 10SM SCT015 30/26 A2997 RMK AO2 T03000256
  • 191315Z 22007KT 8SM BKN015 29/25 A2997 RMK AO2 T02890250
  • 191253Z 23006KT 8SM BKN013 28/25 A2997 RMK AO2 SLP134 T02830250
  • 191235Z 23006G14KT 8SM BKN011 28/25 A2996 RMK AO2 T02830250
  • 191153Z 22007KT 7SM FEW009 28/25 A2995 RMK AO2 SLP128 70001 T02780250 10278 20267 53007

TAF N/A
KZID FIR / North America



MET'MAP, your aeronautical weather chart ! - Copyright ORBIFLY December 2007 - Disclaimer

ORBIFLY MET'MAP TEAM :

Programming & Development : Alexandra Zaïnal
Concept & Development : Baudouin d'Aumeries
Co-Development & Prog : Marc-Olivier Méhu
Technical & hardware support : Manuel Goepfert

Contact : metmap@orbifly.com




SOURCES & CREDITS :

   NOAA       Earth
Advisory